TimeEST,TemperatureF,Dew PointF,Humidity,Sea Level PressureIn,VisibilityMPH,Wind Direction,Wind SpeedMPH,Gust SpeedMPH,PrecipitationIn,Events,Conditions,WindDirDegrees,DateUTC
12:54 AM,46.0,44.1,93,30.24,5.0,North,5.8,-,N/A,,Overcast,350,2012-11-16 05:54:00
1:43 AM,46.4,44.6,93,30.24,6.0,NNE,8.1,-,N/A,,Overcast,20,2012-11-16 06:43:00
1:54 AM,46.9,44.1,90,30.25,6.0,NNE,5.8,-,N/A,,Overcast,20,2012-11-16 06:54:00
2:54 AM,46.9,44.1,90,30.25,6.0,North,5.8,-,N/A,,Overcast,10,2012-11-16 07:54:00
3:54 AM,46.9,44.1,90,30.25,7.0,North,6.9,-,N/A,,Overcast,360,2012-11-16 08:54:00
4:10 AM,46.4,44.6,93,30.25,7.0,North,5.8,-,N/A,,Overcast,360,2012-11-16 09:10:00
4:54 AM,46.0,43.0,89,30.25,8.0,NNE,8.1,-,N/A,,Overcast,20,2012-11-16 09:54:00
5:54 AM,45.0,43.0,93,30.25,7.0,NNE,8.1,-,N/A,,Mostly Cloudy,20,2012-11-16 10:54:00
6:54 AM,44.1,42.1,93,30.26,5.0,North,4.6,-,N/A,,Clear,10,2012-11-16 11:54:00
7:20 AM,44.6,42.8,93,30.26,4.0,North,4.6,-,N/A,,Mostly Cloudy,10,2012-11-16 12:20:00
7:27 AM,44.6,42.8,93,30.27,4.0,North,4.6,-,N/A,,Scattered Clouds,360,2012-11-16 12:27:00
7:54 AM,45.0,42.1,90,30.27,4.0,NNE,4.6,-,N/A,,Clear,20,2012-11-16 12:54:00
8:54 AM,48.0,43.0,83,30.30,8.0,NNE,8.1,-,N/A,,Overcast,20,2012-11-16 13:54:00
9:54 AM,50.0,43.0,77,30.30,10.0,NNE,8.1,-,N/A,,Overcast,30,2012-11-16 14:54:00
10:54 AM,53.1,42.1,66,30.30,10.0,NE,15.0,-,N/A,,Clear,40,2012-11-16 15:54:00
11:54 AM,55.0,43.0,64,30.28,10.0,NNE,9.2,-,N/A,,Clear,20,2012-11-16 16:54:00
12:54 PM,55.9,43.0,62,30.26,10.0,NNE,12.7,-,N/A,,Partly Cloudy,30,2012-11-16 17:54:00
1:54 PM,57.0,41.0,55,30.25,10.0,NNE,5.8,-,N/A,,Clear,30,2012-11-16 18:54:00
2:54 PM,57.0,41.0,55,30.25,10.0,North,10.4,-,N/A,,Clear,360,2012-11-16 19:54:00
3:54 PM,57.0,41.0,55,30.26,10.0,NE,9.2,-,N/A,,Clear,40,2012-11-16 20:54:00
4:54 PM,55.0,41.0,59,30.27,10.0,NNE,5.8,-,N/A,,Clear,30,2012-11-16 21:54:00
5:54 PM,52.0,41.0,66,30.28,10.0,NNE,3.5,-,N/A,,Clear,30,2012-11-16 22:54:00
6:54 PM,51.1,41.0,68,30.30,10.0,NNE,3.5,-,N/A,,Clear,30,2012-11-16 23:54:00
7:54 PM,48.0,39.9,74,30.32,10.0,NNE,4.6,-,N/A,,Clear,20,2012-11-17 00:54:00
8:54 PM,46.9,39.0,74,30.33,10.0,NNE,5.8,-,N/A,,Clear,30,2012-11-17 01:54:00
9:54 PM,46.9,37.9,71,30.35,10.0,NE,4.6,-,N/A,,Clear,40,2012-11-17 02:54:00
10:54 PM,44.1,37.9,79,30.35,10.0,NNE,4.6,-,N/A,,Clear,20,2012-11-17 03:54:00
11:54 PM,43.0,37.0,80,30.35,10.0,NNE,5.8,-,N/A,,Clear,30,2012-11-17 04:54:00